Location: Hiram
(41.3130°N, 81.1440°W)
Time: 04:02:25
(UTC-04:00)

Daily predictions for brighter satellites

Satellite Brightness Start Highest point End
(mag) Time Altitude Azimuth Time Altitude Azimuth Time Altitude Azimuth
Cosmos 1898 Rocket 4.4 00:00:31 10° NNW 00:04:03 44° N 00:04:03 44° N
NOSS 3-1 (C) 3.9 00:13:48 52° WNW 00:14:17 53° NW 00:20:41 10° NNE
NOSS 0 Rocket 4.3 00:15:35 61° NW 00:15:35 61° NW 00:21:11 10° NNE
Cosmos 2333 Rocket 3.0 00:21:21 47° NW 00:21:21 47° NW 00:26:35 10° NNE
Cosmos 2237 Rocket 3.0 00:26:24 49° NNW 00:26:24 49° NNW 00:30:50 10° NNE
NOSS 3-1 (A) 3.9 00:29:36 56° NW 00:29:36 56° NW 00:35:43 10° NNE
Cosmos 2278 Rocket 3.3 00:24:02 10° NNW 00:27:48 39° WNW 00:27:48 39° WNW
ATLAS 2AS CENTAUR R/B 3.9 00:32:49 36° ENE 00:32:49 36° ENE 00:38:06 10° NE
CZ-2C R/B 4.0 00:37:06 10° NNE 00:40:15 34° NE 00:40:15 34° NE
Cosmos 2219 Rocket 4.1 00:53:26 20° WNW 00:54:45 22° NW 00:59:03 10° N
ATLAS 3B R/B 3.3 00:59:31 10° NNW 01:06:04 47° NE 01:06:04 47° NE
USA 238 DEB 4.4 01:16:16 10° NNW 01:23:04 47° NE 01:23:52 45° ENE
USA 238 4.5 01:16:22 10° NNW 01:23:10 46° NE 01:24:00 44° ENE
Cosmos 2369 Rocket 3.6 01:21:59 10° N 01:26:16 33° NE 01:26:16 33° NE
USA 215 4.2 01:35:33 10° NE 01:39:38 38° ENE 01:39:38 38° ENE
Cosmos 1943 Rocket 3.8 01:41:19 10° N 01:46:06 27° NE 01:46:25 27° ENE
SL-16 R/B 3.7 01:46:55 31° NW 01:46:55 31° NW 01:51:11 10° N
ATLAS CENTAUR R/B 4.2 02:08:06 15° NNW 02:08:06 15° NNW 02:09:17 10° N
Cosmos 2181 Rocket 4.4 02:08:48 61° NE 02:08:48 61° NE 02:14:12 10° N
ATLAS 2AS CENTAUR R/B 3.6 02:20:13 45° WNW 02:21:35 49° NW 02:29:26 10° NNE
SL-8 Rocket 4.3 02:21:06 10° N 02:26:21 63° NNE 02:26:21 63° NNE
NOSS 3-2 (A) 4.2 02:28:17 10° NNW 02:35:45 68° NE 02:38:59 39° ESE
Cosmos 1943 3.8 02:43:07 50° NNW 02:43:07 50° NNW 02:47:34 10° NNE
ATLAS 3B R/B 4.1 02:50:36 10° NW 02:53:17 22° WNW 02:53:17 22° WNW
NPP 4.0 02:58:21 10° NNE 03:03:10 61° ENE 03:03:10 61° ENE
Lacrosse 5 rocket 4.0 03:05:58 16° E 03:05:58 16° E 03:07:39 10° ENE
Resurs 1-4 Rocket 3.5 03:03:22 10° NE 03:07:56 29° E 03:08:31 29° ESE
Cosmos 2369 Rocket 4.0 03:06:04 10° NW 03:08:01 20° NW 03:08:01 20° NW
SL-08 R/B 4.0 03:12:21 51° N 03:12:21 51° N 03:16:00 10° N
CZ-2D R/B 3.2 03:13:23 10° NNE 03:18:14 36° E 03:18:56 34° ESE
Cosmos 1812 Rocket 4.5 03:16:40 10° N 03:19:57 46° NNE 03:19:57 46° NNE
Cosmos 1680 Rocket 3.6 03:23:12 75° NNE 03:23:12 75° NNE 03:28:01 10° NNE
RESURS DK-1 3.6 03:25:43 39° NE 03:25:43 39° NE 03:28:31 10° NNE
CBERS-1 4.1 03:19:27 10° NNE 03:24:07 74° NNE 03:24:07 74° NNE
USA 215 3.9 03:18:40 10° NE 03:24:53 48° NNW 03:26:58 36° WNW
COSMOS 2455 2.9 03:20:53 10° NNW 03:26:56 74° ENE 03:29:08 41° SE
Cosmos 1943 Rocket 3.3 03:24:40 10° NW 03:27:55 32° WNW 03:27:55 32° WNW
ADEOS 4.2 03:25:27 10° NNE 03:30:29 46° E 03:31:11 43° ESE
Meteor 1-4 Rocket 4.4 03:29:49 10° N 03:31:48 29° N 03:31:48 29° N
Cosmos 192 4.5 03:35:33 67° E 03:35:33 67° E 03:40:17 10° NNE
COSMOS 2406 3.2 03:35:40 68° SSE 03:36:11 73° ESE 03:41:56 10° NNE
IRS-1D 3.9 03:32:31 10° NNE 03:37:39 56° E 03:38:24 51° SE
Meteor 1-22 Rocket 4.1 03:34:42 10° NNW 03:39:55 69° WNW 03:39:55 69° WNW
Meteor 2-8 Rocket 4.4 03:41:08 58° S 03:42:23 81° E 03:48:32 10° N
SL-27 R/B 4.0 03:43:36 35° NE 03:43:36 35° NE 03:46:01 10° NNE
NOSS 3-2 (C) 3.9 03:38:17 10° NW 03:45:47 65° WSW 03:50:12 29° S
Cosmos 1821 Rocket 4.0 03:42:44 10° N 03:48:52 78° E 03:51:18 39° SSE
ARIANE 5 R/B 2.7 03:43:38 10° NNE 03:48:52 67° ESE 03:49:48 55° SSE
Cosmos 724 4.3 03:45:12 10° NW 03:50:52 59° WSW 03:50:52 59° WSW
COBE Rocket 4.4 03:46:59 10° NNE 03:51:58 56° E 03:53:04 46° SE
IRS-1C 4.1 03:47:15 10° N 03:52:33 66° WNW 03:52:56 63° W
SL-16 R/B 2.4 03:51:39 43° S 03:53:52 85° WSW 04:00:04 10° NNW
Cosmos 1371 Rocket 4.0 03:49:04 10° NNW 03:54:28 80° ENE 03:56:34 38° SSE
CENTAUR R/B 3.5 03:48:54 10° NNW 03:56:42 65° NE 04:05:03 10° SE
USA 267 3.1 03:50:31 10° SE 03:57:03 80° SW 04:03:38 10° NW
ADEOS Rocket 3.1 03:51:30 10° NNE 03:57:34 81° ESE 04:00:01 42° S
Cosmos 1825 Rocket 3.5 03:58:07 79° ESE 03:58:14 80° E 04:02:39 10° N
Cosmos 2239 Rocket 4.3 03:53:07 10° N 03:59:18 85° W 04:01:34 42° S
Cosmos 1953 2.6 03:58:38 10° N 04:02:37 64° E 04:02:57 60° ESE
AQUA 4.5 03:59:36 10° N 04:03:55 40° WNW 04:03:55 40° WNW
GEOS 3 Rocket 3.6 03:59:28 10° NNE 04:04:46 80° NW 04:05:55 56° SW
Cosmos 1535 Rocket 4.3 04:00:28 10° N 04:06:42 80° W 04:09:16 38° S
Cosmos 1818 4.0 04:07:00 40° SSE 04:08:36 55° ESE 04:13:55 10° NE
Cosmos 1605 Rocket 4.4 04:03:18 10° N 04:09:27 61° E 04:15:30 10° SSE
Cosmos 1934 Rocket 3.9 04:04:39 10° N 04:10:59 90° NE 04:14:55 25° S
NOSS 3-4 (A) 4.3 04:09:46 31° W 04:11:54 41° NW 04:18:02 10° NNE
NOSS 3-4 (C) 4.3 04:09:52 32° W 04:12:00 41° NW 04:18:10 10° NNE
NOSS 2-2 (D) 3.5 04:11:50 60° SSE 04:12:13 64° ESE 04:16:43 10° NE
Cosmos 1656 Rocket 3.9 04:07:11 10° NW 04:11:51 44° W 04:11:51 44° W
Okean O Rocket 4.3 04:10:28 10° NE 04:13:08 16° E 04:15:48 10° SE
ADEOS II 4.4 04:10:15 10° NE 04:13:54 19° E 04:17:33 10° SE
UNKNOWN OBJECT B 3.1 04:11:17 10° NNE 04:15:16 62° E 04:16:05 49° SSE
Cosmos 1758 3.2 04:15:03 10° NNW 04:19:08 70° W 04:19:10 70° WSW
UNK 4.2 04:27:09 39° W 04:27:09 39° W 04:31:10 10° NNW
NOSS 2-2 (C) 3.4 04:29:42 55° SW 04:30:34 82° NW 04:35:12 10° NNE
Tiangong 1 1.5 04:33:00 52° E 04:33:00 52° E 04:35:16 10° E
Cosmos 1733 3.1 04:35:38 10° N 04:39:27 88° E 04:41:23 28° S
Cosmos 2098 Rocket 2.0 04:38:21 10° N 04:41:18 81° E 04:41:44 60° SSE
Lacrosse 5 rocket 1.7 04:41:40 38° WSW 04:43:22 70° NW 04:48:02 10° NE
Delta 2 Rocket 3.9 04:45:44 30° SSE 04:45:44 30° SSE 04:48:20 10° ESE
Cosmos 2278 4.2 04:40:57 10° NNW 04:46:39 65° ENE 04:52:18 10° SE
MOS 1 Rocket 3.1 04:42:24 10° NNE 04:46:45 84° ESE 04:49:35 22° S
Cosmos 389 Rocket 2.4 04:43:19 10° N 04:46:58 85° W 04:49:03 24° S
Cosmos 1624 Rocket 4.4 04:42:24 10° NNW 04:47:16 41° WSW 04:49:36 26° SSW
Resurs 1-4 Rocket 2.9 04:43:03 10° N 04:47:46 35° WNW 04:49:36 27° WSW
USA 161 1.4 04:48:14 63° WSW 04:48:18 64° WSW 04:51:11 10° NNW
Cosmos 1271 Rocket 3.8 04:46:44 10° NNW 04:49:21 26° WNW 04:49:21 26° WNW
Cosmos-2242 2.9 04:47:24 10° NNW 04:51:48 72° W 04:55:20 15° S
Cosmos 1758 Rocket 4.2 04:51:05 32° WSW 04:52:07 37° WNW 04:56:10 10° N
CZ-4B R/B 4.3 04:49:14 10° NNE 04:53:19 41° E 04:57:33 10° S
Cosmos 2369 4.0 04:48:25 10° NNW 04:54:10 73° ENE 04:59:53 10° SSE
Meteor 2-5 Rocket 3.8 04:52:46 12° S 04:58:03 83° E 05:03:53 10° NNE
CZ-2D R/B 3.1 04:53:40 10° N 04:58:10 29° WNW 05:00:15 22° WSW
MOS 1-B 4.3 04:54:21 10° NNE 05:00:12 87° WNW 05:05:27 13° SSW
Cosmos 921 Rocket 3.7 04:56:25 10° NW 05:00:29 34° W 05:02:20 24° SW
Cosmos 2056 Rocket 4.1 04:55:52 10° NW 05:00:37 34° W 05:03:28 20° SSW
RESURS DK-1 4.4 05:01:38 13° WNW 05:02:53 14° NW 05:05:11 10° NNW
COSMOS 2455 4.2 05:08:24 10° WNW 05:12:09 17° WSW 05:12:09 17° WSW
Cosmos 2082 Rocket 2.5 05:08:28 10° SSW 05:14:08 71° ESE 05:19:49 10° NNE
Cosmos 1727 Rocket 4.2 05:10:06 15° SSW 05:15:08 52° WNW 05:21:09 10° N
Cosmos 1833 Rocket 3.0 05:09:50 10° S 05:15:22 66° ESE 05:20:57 10° NNE
Cosmos 1980 Rocket 4.1 05:10:43 10° N 05:15:52 34° ENE 05:20:57 10° ESE
DNEPR-1 R/B 3.5 05:12:10 10° NW 05:16:20 62° WSW 05:20:48 10° SSE
Cosmos 1656 3.7 05:14:13 10° NNW 05:19:41 80° ENE 05:25:06 10° SSE
Cosmos 158 Rocket 4.3 05:16:11 10° S 05:21:05 65° ESE 05:26:11 10° NNE
CZ-4B R/B 3.5 05:17:17 10° NNE 05:22:40 68° ESE 05:27:56 10° S
PAYLOAD B 4.4 05:17:13 10° NNE 05:22:49 77° ESE 05:28:21 10° S
Orbus 7S? 2.6 05:20:47 10° NW 05:23:57 79° NE 05:26:31 10° SE
CZ-2C R/B 4.3 05:20:51 10° SSE 05:25:12 61° ENE 05:29:37 10° N
Cosmos 2016 Rocket 4.4 05:19:26 10° N 05:25:40 68° E 05:31:56 10° SSE
ARIANE 5 R/B 4.3 05:24:11 10° NNW 05:27:24 17° WNW 05:30:09 11° W
EXPRESS MD2 3.1 05:23:37 10° WNW 05:28:31 76° NNE 05:31:13 10° ESE
Landsat 4 4.3 05:25:18 10° SSW 05:28:41 33° W 05:32:06 10° NNW
Cosmos 1707 3.8 05:27:49 16° SW 05:30:04 28° WNW 05:33:27 10° NNW
Meteor 1-16 Rocket 4.3 05:29:53 10° NNW 05:35:05 51° W 05:40:12 10° SSW
Cosmos 1452 Rocket 3.9 05:30:50 10° NW 05:35:43 40° WSW 05:40:35 10° S
Cosmos 1470 4.3 05:34:30 10° NW 05:37:07 17° W 05:39:05 13° WSW
Okean 3 Rocket 4.0 05:33:14 10° S 05:37:34 65° E 05:41:58 10° NNE
SL-16 R/B 4.2 05:36:44 11° WSW 05:38:18 12° W 05:40:31 10° WNW
USA 267 4.3 05:36:09 10° SSW 05:40:40 20° WSW 05:45:13 10° WNW
Cosmos 1802 Rocket 4.1 05:34:29 10° N 05:40:57 78° W 05:47:19 10° S
IRS-1C Rocket 4.1 05:39:21 10° N 05:44:37 74° WNW 05:49:51 10° SSW
COSMOS 2487 3.9 05:43:51 12° WSW 05:46:28 23° WNW 05:49:25 10° N
CENTAUR R/B 3.7 05:40:12 10° NW 05:47:10 33° WSW 05:54:25 10° S
Cosmos 1459 Rocket 4.1 05:42:56 10° NNW 05:48:56 57° W 05:55:01 10° SSW
Cosmos 1378 4.4 05:46:13 10° SW 05:49:18 24° WNW 05:52:24 10° NNW
Okean O Rocket 2.0 05:45:30 10° N 05:49:47 47° WNW 05:54:00 10° SW
GPS 2-05 Rocket1 4.4 05:47:34 10° SW 05:50:27 24° SSE 05:53:17 10° ESE
SOZ 4.3 05:48:43 11° WSW 05:50:48 63° NNW 05:53:14 10° NE
BREEZE-M DEB (TANK) 4.5 05:44:48 10° SW 05:51:54 35° SSE 05:55:01 10° E
Cosmos 1420 Rocket 4.3 05:47:26 10° NNW 05:52:29 44° WSW 05:57:28 10° S
ADEOS II 2.3 05:48:50 10° N 05:53:56 53° WNW 05:59:01 10° SSW
Cosmos 1725 Rocket 4.2 05:50:35 10° N 05:56:52 82° E 06:03:11 10° S
Cosmos 1048 Rocket 4.3 05:53:21 10° SW 05:58:19 50° WNW 06:03:20 10° N
Meteor 1-24 Rocket 4.0 05:56:09 10° SSW 06:01:22 46° WNW 06:06:49 10° N
Timation 2 Rocket 4.1 05:55:14 10° SSW 06:01:56 79° WNW 06:08:24 10° NNE
